Temp
39 36 28 30 32 30 28 27 28 32 33 31 30 32 35 40 41 40 40 40 40 41 44 44 44 44 43 44 43 42 42 44 45 45 46 48 50 57 56 74 75 75 74 68
38 28 31 33 32 29 29 27 28 31 32 31 31 32 36 37 38 39 39 39 39 40 41 42 42 42 42 41 41 41 41 41 42 44 44 46 48 52 55 59 69 74 74 70
33 29 33 31 30 29 28 26 25 23 29 32 30 31 33 39 39 41 42 42 41 38 38 39 40 40 40 39 39 39 39 40 40 41 43 45 47 50 53 57 62 71 73 70
30 32 29 29 27 28 26 30 27 25 26 29 31 29 31 35 36 37 39 40 39 38 39 39 38 38 38 38 40 39 39 39 40 40 39 38 39 40 46 50 53 56 70 69
25 27 27 26 25 28 27 30 27 26 25 24 27 25 33 32 31 32 37 38 38 38 38 37 38 38 39 39 38 38 38 38 38 37 36 36 36 40 43 46 49 54 62 67
28 32 29 28 30 29 31 26 27 27 26 21 25 25 33 31 24 31 36 37 37 37 37 38 39 39 38 39 38 37 36 36 37 36 34 33 33 35 37 40 43 51 57 65
26 26 30 30 26 31 31 24 25 22 22 24 25 23 31 29 30 29 31 34 36 37 37 36 36 36 36 36 36 36 35 34 35 34 32 32 33 34 35 37 39 42 49 60
24 23 25 29 25 18 23 21 24 17 20 22 25 20 31 31 33 33 34 34 36 36 36 36 35 35 35 35 35 35 34 33 34 34 32 31 31 32 33 35 37 40 42 52
21 21 27 28 29 25 18 19 20 15 13 12 24 25 31 31 30 32 33 35 33 34 35 35 35 35 35 34 34 34 33 33 33 33 34 32 30 30 30 32 35 37 41 44
18 19 24 26 29 27 24 26 18 18 12 12 22 19 26 26 30 33 33 32 33 34 35 35 35 34 35 34 34 34 34 32 33 32 33 33 31 29 30 31 31 34 37 40
19 18 19 22 20 22 20 19 17 19 17 14 12 24 30 30 33 32 33 33 34 33 34 34 34 35 34 35 34 34 33 32 32 31 31 31 32 30 29 29 29 31 34 37
20 18 16 18 23 24 21 21 21 18 12 15 13 16 31 31 33 33 32 34 35 36 35 34 33 33 34 33 33 32 32 31 31 31 31 30 30 31 29 28 28 29 31 33
20 16 16 14 16 18 16 21 22 18 18 12 11 23 31 31 31 33 32 35 35 35 36 36 35 33 32 32 31 31 31 30 30 30 30 29 29 28 30 29 29 29 29 31
27 15 14 23 18 17 12 15 20 17 12 15 15 25 32 32 31 34 35 35 35 34 34 34 35 34 32 31 30 29 30 30 29 28 28 27 27 26 27 30 31 30 29 29
23 12 9 14 17 17 14 14 15 13 17 12 24 25 28 31 30 32 34 34 33 33 35 35 34 34 33 31 30 29 29 28 28 27 27 26 26 26 27 28 29 31 31 29
17 13 5 5 16 16 11 14 14 16 18 18 19 19 30 30 32 31 32 33 32 33 34 35 34 33 32 31 29 27 26 25 26 25 25 25 25 25 25 25 26 27 29 29
15 14 9 9 10 11 7 11 15 17 16 17 12 22 31 28 30 31 32 33 32 33 34 34 34 33 32 31 29 26 25 26 25 24 24 24 23 23 23 24 24 23 23 25
10 11 13 8 6 6 21 23 20 19 21 21 21 24 26 27 31 31 31 30 32 33 33 34 34 34 33 31 28 27 27 25 24 23 22 22 20 20 21 21 20 20 21 20
22 16 10 6 3 12 25 17 13 12 19 24 22 24 27 28 24 27 33 34 33 33 35 35 35 33 32 29 29 26 25 23 21 19 19 17 18 17 18 18 18 18 18 18
20 19 13 -3 1 6 21 20 21 20 15 28 25 25 26 24 21 30 35 34 33 33 33 33 34 31 29 29 28 25 23 20 17 16 15 16 15 15 15 16 16 17 17 18
10 12 8 7 5 9 19 22 20 12 22 25 25 28 27 24 29 31 32 31 32 32 32 34 32 29 29 28 25 21 21 16 18 14 13 14 14 13 15 16 15 15 15 15
9 7 7 10 4 1 24 21 18 29 25 26 25 27 26 27 29 30 30 30 30 31 32 31 29 28 27 25 22 19 17 18 14 12 11 11 11 12 14 12 12 12 13 13
10 19 13 14 14 23 24 28 28 25 24 28 28 29 30 28 28 30 29 29 27 27 27 28 26 25 18 17 18 16 16 14 11 8 6 6 8 9 11 10 10 10 11 11
16 19 15 12 20 19 22 23 24 27 27 30 30 30 30 28 29 27 28 27 26 26 24 24 22 19 13 13 16 14 13 9 5 4 5 6 6 7 8 10 11 10 10 10
23 18 18 19 25 27 28 28 30 31 32 31 31 30 29 28 28 27 27 26 26 25 21 18 19 17 15 14 12 10 9 5 4 4 5 6 7 7 7 9 9 9 11 11
24 21 18 19 29 28 30 34 32 29 30 32 30 29 30 27 27 27 25 24 21 20 17 16 15 13 12 11 10 8 6 4 2 4 6 7 5 7 6 6 7 11 11 12
MSLP
1025.47 1025.28 1026.80 1027.63 1027.56 1027.56 1027.37 1027.09 1026.85 1026.82 1027.59 1027.33 1026.61 1026.11 1025.99 1025.88 1025.47 1025.24 1025.24 1024.93 1024.33 1024.18 1024.46 1024.35 1023.87 1023.25 1022.55 1021.78 1020.95 1020.29 1019.39 1018.50 1017.50 1016.28 1015.04 1013.80 1012.34 1010.67 1009.64 1007.37 1006.78 1006.42 1006.41 1007.01
1026.33 1027.73 1029.08 1029.05 1028.84 1028.46 1028.20 1027.91 1027.70 1027.57 1027.64 1027.16 1026.19 1025.78 1025.65 1025.66 1025.75 1025.84 1025.58 1025.44 1025.33 1024.62 1024.07 1023.99 1023.87 1023.44 1022.76 1022.24 1021.46 1020.48 1019.78 1019.07 1018.27 1017.24 1016.40 1015.25 1013.64 1011.71 1010.50 1008.80 1007.13 1005.97 1005.82 1006.16
1026.91 1029.70 1029.85 1029.45 1029.28 1028.78 1028.69 1028.76 1028.82 1028.60 1027.67 1026.80 1026.15 1024.88 1024.85 1024.95 1024.94 1025.44 1025.38 1025.48 1025.68 1025.57 1025.03 1024.40 1023.90 1023.74 1023.12 1022.44 1021.84 1021.15 1020.25 1019.43 1018.66 1017.85 1016.68 1015.34 1013.98 1012.15 1010.30 1008.57 1007.08 1005.62 1005.17 1005.29
1029.35 1030.39 1030.14 1029.88 1029.88 1029.97 1029.12 1029.43 1028.97 1028.44 1027.70 1026.45 1026.48 1024.58 1024.17 1024.19 1024.53 1025.32 1025.13 1025.37 1025.61 1025.41 1025.20 1025.23 1024.36 1024.04 1023.44 1022.88 1022.52 1021.74 1020.76 1019.79 1018.93 1018.04 1017.22 1016.30 1014.91 1013.16 1011.74 1010.37 1008.49 1006.88 1005.01 1004.51
1030.84 1030.87 1030.84 1030.57 1030.72 1030.62 1029.76 1029.53 1028.92 1028.47 1027.78 1027.25 1026.14 1025.34 1023.16 1024.47 1024.68 1025.18 1025.32 1025.48 1025.47 1025.61 1025.55 1025.13 1024.79 1024.40 1023.89 1023.27 1022.65 1021.89 1021.11 1020.23 1019.20 1018.40 1017.74 1016.79 1015.52 1014.16 1012.49 1010.92 1008.84 1006.86 1005.21 1003.75
1030.98 1031.60 1031.60 1031.37 1031.09 1030.76 1030.29 1029.50 1028.86 1028.39 1027.61 1026.59 1025.80 1025.55 1022.88 1023.97 1025.19 1025.54 1025.63 1025.53 1025.55 1025.55 1025.51 1025.35 1025.00 1024.42 1023.92 1023.35 1022.69 1022.06 1021.34 1020.42 1019.59 1018.72 1017.83 1017.02 1016.02 1014.54 1012.89 1011.23 1009.40 1007.19 1005.22 1003.26
1031.37 1031.57 1031.80 1031.92 1031.32 1030.71 1029.92 1029.40 1028.39 1027.83 1026.82 1025.67 1025.88 1025.54 1022.89 1024.28 1025.25 1025.75 1025.83 1025.68 1025.58 1025.51 1025.35 1025.08 1024.82 1024.39 1023.94 1023.55 1023.04 1022.24 1021.56 1020.67 1019.92 1019.07 1018.19 1017.22 1016.19 1015.09 1013.60 1011.91 1010.02 1008.15 1005.84 1003.24
1031.78 1031.76 1032.05 1032.29 1032.16 1031.81 1031.05 1030.55 1029.36 1028.87 1027.89 1026.57 1025.96 1024.65 1023.05 1024.15 1025.11 1025.60 1025.83 1025.75 1025.49 1025.33 1025.31 1025.15 1024.94 1024.65 1024.28 1023.91 1023.36 1022.80 1021.94 1021.05 1020.26 1019.37 1018.45 1017.59 1016.62 1015.58 1014.20 1012.64 1010.73 1008.67 1006.76 1004.05
1032.61 1032.51 1032.62 1032.60 1032.59 1032.74 1031.86 1031.48 1031.74 1030.62 1030.36 1028.78 1025.29 1024.20 1023.42 1024.09 1024.66 1025.03 1025.12 1025.08 1025.22 1025.21 1025.14 1025.10 1025.00 1024.75 1024.38 1024.04 1023.60 1023.14 1022.44 1021.57 1020.74 1020.02 1018.74 1017.74 1016.92 1015.77 1014.53 1012.94 1011.19 1009.17 1007.24 1005.08
1033.48 1033.16 1032.80 1032.84 1032.89 1033.04 1032.58 1032.72 1032.32 1031.61 1030.45 1028.39 1025.43 1024.73 1023.05 1023.29 1023.43 1024.03 1024.32 1024.68 1024.82 1024.92 1024.83 1024.89 1024.89 1024.72 1024.51 1024.23 1023.76 1023.23 1022.66 1022.03 1021.08 1020.50 1019.22 1018.18 1017.27 1016.19 1014.87 1013.41 1011.74 1009.79 1007.78 1006.17
1033.88 1033.62 1033.57 1033.33 1032.96 1032.58 1033.25 1032.97 1032.93 1032.43 1031.46 1029.87 1027.28 1023.37 1022.12 1022.18 1022.65 1023.28 1023.77 1024.10 1024.29 1024.43 1024.50 1024.50 1024.60 1024.54 1024.44 1024.11 1023.76 1023.25 1022.65 1022.08 1021.09 1020.63 1019.64 1018.68 1017.52 1016.43 1015.21 1013.84 1012.54 1010.62 1008.56 1006.75
1034.09 1033.93 1033.30 1032.99 1033.36 1033.57 1033.29 1032.98 1032.74 1032.15 1032.04 1030.88 1029.31 1023.96 1022.31 1022.48 1022.82 1023.21 1023.49 1023.63 1023.63 1023.74 1023.87 1024.08 1024.21 1024.24 1024.05 1023.85 1023.62 1023.27 1022.83 1022.26 1021.71 1021.11 1020.16 1019.23 1018.24 1016.99 1015.69 1014.30 1013.09 1011.48 1009.79 1007.99
1034.09 1034.17 1033.70 1033.52 1034.05 1034.04 1033.71 1033.07 1032.81 1032.76 1032.25 1030.17 1028.99 1023.07 1022.31 1022.61 1022.70 1022.94 1022.99 1022.96 1023.01 1023.12 1023.08 1023.15 1023.45 1023.64 1023.70 1023.64 1023.47 1023.22 1022.91 1022.45 1021.96 1021.35 1020.45 1019.48 1018.58 1017.63 1016.37 1015.20 1013.95 1012.35 1010.70 1009.16
1033.98 1034.27 1033.56 1032.76 1032.60 1032.96 1033.36 1032.95 1032.76 1032.62 1031.78 1029.05 1025.89 1022.31 1021.39 1022.07 1022.42 1022.47 1022.41 1022.58 1022.44 1022.50 1022.56 1022.62 1022.69 1022.90 1023.15 1023.31 1023.34 1023.19 1022.89 1022.65 1022.15 1021.55 1020.71 1019.98 1019.12 1018.32 1017.31 1015.94 1014.67 1013.53 1012.22 1010.64
1034.18 1034.46 1034.32 1033.24 1033.07 1033.06 1032.84 1032.39 1032.29 1031.21 1029.47 1028.69 1023.17 1023.26 1020.92 1021.60 1022.21 1022.19 1022.15 1022.05 1021.86 1021.71 1021.66 1021.90 1022.02 1022.22 1022.59 1022.87 1023.02 1023.07 1022.91 1022.61 1022.25 1021.65 1021.16 1020.53 1019.80 1018.84 1017.67 1016.58 1015.29 1014.22 1013.18 1012.00
1034.89 1034.69 1035.22 1033.93 1032.80 1032.53 1032.03 1030.79 1030.32 1029.82 1029.23 1027.67 1025.13 1023.80 1020.92 1021.60 1021.74 1021.68 1021.42 1021.40 1021.14 1021.03 1021.00 1021.15 1021.37 1021.61 1021.87 1022.19 1022.52 1022.83 1022.90 1022.79 1022.56 1021.97 1021.36 1020.86 1020.11 1019.22 1018.26 1017.38 1016.15 1014.87 1013.58 1012.71
1034.63 1034.99 1035.26 1033.39 1033.12 1032.33 1030.44 1026.87 1027.24 1027.26 1026.96 1026.05 1025.45 1021.80 1021.49 1021.36 1021.26 1021.17 1021.11 1021.06 1020.85 1020.62 1020.55 1020.56 1020.65 1020.86 1021.20 1021.69 1022.19 1022.46 1022.60 1022.62 1022.45 1022.10 1021.59 1021.13 1020.51 1019.69 1018.89 1018.01 1017.07 1015.86 1014.79 1013.48
1034.15 1034.80 1035.01 1033.81 1033.22 1030.74 1025.97 1025.68 1025.74 1025.77 1025.07 1024.52 1023.43 1021.92 1021.54 1021.39 1021.18 1021.25 1021.04 1020.93 1020.43 1020.13 1020.08 1019.99 1020.06 1020.28 1020.67 1021.23 1021.86 1022.26 1022.40 1022.39 1022.31 1022.12 1021.89 1021.48 1020.89 1020.21 1019.45 1018.54 1017.82 1016.87 1015.91 1015.02
1033.12 1034.06 1034.36 1034.35 1032.74 1028.05 1025.05 1025.37 1025.74 1025.72 1023.77 1022.22 1022.34 1021.25 1021.20 1021.29 1021.73 1020.73 1020.30 1020.25 1019.90 1019.70 1019.62 1019.65 1019.71 1020.00 1020.41 1020.86 1021.34 1021.85 1022.13 1022.27 1022.32 1022.30 1022.17 1021.93 1021.45 1020.74 1019.94 1019.18 1018.36 1017.60 1016.69 1015.84
1033.08 1033.50 1033.75 1034.74 1032.68 1028.25 1024.71 1024.92 1025.29 1025.37 1023.18 1020.78 1021.22 1021.04 1021.04 1021.44 1020.88 1019.63 1019.78 1019.82 1019.32 1019.31 1019.49 1019.40 1019.28 1019.66 1019.97 1020.23 1020.87 1021.36 1021.61 1022.13 1022.33 1022.42 1022.43 1022.24 1021.89 1021.34 1020.53 1019.77 1018.95 1018.20 1017.49 1016.49
1032.65 1032.90 1031.91 1032.24 1030.99 1027.36 1024.59 1024.95 1025.43 1024.60 1021.76 1021.01 1021.11 1020.76 1020.81 1020.83 1019.92 1019.56 1019.74 1019.48 1019.34 1019.04 1018.97 1018.93 1019.00 1019.16 1019.41 1020.05 1020.65 1021.06 1021.37 1021.89 1022.30 1022.74 1022.69 1022.42 1022.05 1021.57 1020.84 1020.15 1019.53 1018.75 1017.75 1016.86
1029.65 1030.10 1030.23 1030.76 1029.64 1026.17 1023.04 1024.29 1023.66 1020.72 1020.51 1020.74 1020.70 1020.48 1020.26 1020.00 1019.67 1019.38 1019.34 1019.25 1019.07 1018.75 1018.57 1018.53 1018.63 1018.72 1019.12 1019.81 1020.50 1021.01 1021.51 1021.94 1022.52 1022.85 1022.80 1022.55 1022.21 1021.68 1020.93 1020.36 1019.79 1019.03 1018.20 1017.26
1027.98 1025.82 1026.38 1026.12 1023.26 1021.98 1021.97 1020.47 1020.52 1020.22 1020.07 1019.87 1019.93 1019.78 1019.49 1019.24 1018.98 1018.83 1018.78 1018.76 1018.66 1018.58 1018.49 1018.54 1018.67 1018.78 1019.49 1020.08 1020.72 1021.27 1021.78 1022.32 1022.70 1022.99 1022.85 1022.61 1022.18 1021.72 1021.15 1020.51 1019.81 1019.21 1018.52 1017.71
1025.39 1025.07 1024.94 1024.23 1020.82 1020.79 1020.53 1020.50 1020.24 1019.65 1019.28 1018.93 1018.91 1018.68 1018.70 1018.35 1018.17 1018.21 1018.36 1018.37 1018.29 1018.43 1018.55 1018.67 1018.87 1019.25 1020.00 1020.63 1021.14 1021.76 1022.18 1022.72 1023.18 1023.10 1022.72 1022.28 1021.86 1021.38 1020.94 1020.39 1019.80 1019.20 1018.71 1018.03
1023.09 1023.74 1022.92 1020.61 1019.72 1019.10 1019.15 1018.76 1018.48 1018.27 1018.23 1018.03 1017.81 1017.76 1017.65 1017.63 1017.31 1017.57 1017.62 1017.93 1018.21 1018.48 1018.81 1019.03 1019.18 1019.71 1020.35 1021.03 1021.52 1022.03 1022.46 1022.88 1023.13 1023.01 1022.62 1022.15 1021.67 1021.26 1020.78 1020.26 1019.86 1019.33 1018.87 1018.41
1021.40 1021.16 1020.86 1018.16 1017.52 1017.27 1016.79 1017.04 1017.41 1017.37 1017.29 1017.12 1017.04 1016.93 1016.86 1017.14 1016.90 1017.10 1017.39 1017.84 1018.42 1018.77 1019.18 1019.55 1019.99 1020.48 1021.08 1021.59 1021.95 1022.28 1022.71 1022.91 1023.07 1022.81 1022.32 1021.99 1021.71 1021.20 1020.80 1020.22 1019.60 1019.26 1018.78 1018.24
Wind_Speed
10 13 13 11 11 5 1 3 7 4 2 12 4 1 1 9 14 17 17 18 21 22 18 19 21 21 22 21 21 21 21 21 16 14 14 14 13 13 14 13 18 18 16 16
8 12 6 3 7 2 0 3 8 5 3 7 4 6 4 1 8 11 14 16 18 22 24 21 23 23 22 22 22 23 21 20 17 13 13 13 14 13 14 14 18 17 18 16
12 4 4 4 8 7 3 6 8 5 11 1 11 4 9 4 2 12 14 14 14 16 20 23 23 23 23 23 23 21 22 20 17 19 14 12 13 13 13 12 12 15 19 19
9 3 5 5 5 8 2 7 10 8 7 3 7 3 8 4 5 11 15 15 15 18 18 18 21 22 22 22 21 21 21 21 17 19 17 19 14 15 14 15 14 17 21 18
3 2 5 4 4 6 4 15 7 3 3 4 1 5 4 3 4 11 14 14 15 15 16 18 19 19 19 19 21 21 21 20 20 18 17 14 16 13 12 14 21 19 19 19
5 1 1 5 8 6 12 2 3 3 2 4 5 4 4 3 2 6 11 13 15 15 15 15 16 17 18 19 20 20 23 21 20 19 19 19 20 19 15 15 16 14 13 14
1 2 1 3 4 3 9 2 1 3 2 3 5 6 7 7 6 4 8 11 13 13 14 15 17 17 18 20 20 19 22 23 22 20 20 19 19 20 19 17 13 18 14 14
2 4 2 3 3 3 6 5 3 5 4 5 3 8 3 8 6 2 4 6 9 12 12 14 15 15 16 18 19 20 21 22 23 22 20 17 18 12 13 15 14 12 12 16
2 3 1 0 2 3 3 3 3 2 2 3 4 6 11 9 9 6 4 8 9 11 11 13 13 13 14 15 17 18 19 19 21 22 19 18 16 18 17 19 16 13 15 14
4 2 2 3 2 4 3 7 2 2 3 6 5 8 9 12 13 7 5 6 7 8 10 10 10 11 11 12 12 15 17 18 18 20 19 17 17 16 17 16 19 19 17 17
4 2 4 1 6 6 5 3 2 1 2 4 7 7 5 10 10 8 5 5 6 7 8 9 9 9 9 10 11 12 14 17 18 18 19 20 19 17 16 16 18 18 19 19
3 1 4 2 3 2 1 4 5 3 5 5 4 13 3 8 8 8 7 9 7 7 8 7 8 8 9 10 10 12 13 13 14 16 17 18 19 20 17 18 19 19 19 19
7 2 3 3 3 1 6 9 8 3 1 11 5 8 2 8 10 12 12 15 12 12 10 9 8 8 8 9 9 10 11 13 13 14 15 16 18 19 20 18 19 19 19 19
5 3 6 5 3 4 5 7 15 9 7 6 19 22 25 13 13 16 17 16 16 12 11 10 9 8 7 7 8 9 10 11 12 13 14 15 17 17 18 19 18 18 17 18
4 6 5 13 15 14 13 14 16 23 22 12 19 17 24 14 14 21 19 17 15 13 12 11 10 9 8 7 7 7 8 10 11 12 13 14 15 16 17 18 19 18 18 16
3 3 2 6 10 13 16 20 22 26 25 29 34 33 35 27 20 16 14 14 14 13 14 12 11 10 10 8 7 6 7 8 9 10 12 13 14 15 15 17 18 19 19 17
7 5 0 6 3 9 11 18 22 13 12 20 23 27 19 17 15 14 12 13 15 15 14 12 12 11 10 8 6 6 6 6 8 9 10 12 14 15 15 15 17 18 18 19
7 6 2 6 4 7 2 4 4 20 13 21 18 21 16 14 14 15 13 15 16 16 15 11 10 11 10 7 6 5 6 6 6 8 9 11 13 14 14 14 15 16 15 15
10 6 3 5 5 13 10 5 7 9 8 20 23 25 19 14 6 13 10 12 15 15 12 10 10 10 9 8 7 6 6 5 5 6 8 9 11 13 14 14 14 13 13 13
12 11 8 3 6 8 4 5 5 4 10 6 12 15 15 3 8 8 9 10 11 11 9 11 10 9 11 10 8 7 6 5 5 6 7 9 10 11 12 13 13 13 12 11
8 10 18 12 9 12 14 7 5 3 5 0 5 9 7 8 10 9 10 11 9 9 12 12 9 10 11 8 8 8 6 5 4 4 6 9 9 11 11 11 11 11 12 12
13 13 8 10 8 16 15 9 11 3 3 3 5 8 9 13 14 14 16 13 12 13 13 11 10 10 9 9 8 7 6 2 1 4 7 9 9 9 9 11 10 11 11 11
7 10 9 15 13 1 13 7 10 5 7 10 10 13 15 16 17 15 14 14 11 11 12 9 9 7 3 6 5 5 2 2 3 6 8 8 9 9 8 10 9 8 9 8
8 6 5 1 10 20 16 15 15 17 18 19 18 17 17 18 15 14 13 10 9 9 8 7 6 4 5 4 4 2 2 2 2 7 9 8 8 8 8 7 7 7 6 7
5 11 9 18 19 21 19 21 20 20 18 17 17 17 17 15 15 14 12 10 9 9 4 2 3 4 5 5 3 3 2 0 5 7 7 8 6 7 8 7 7 7 7 8
10 13 12 15 17 17 15 12 10 13 16 20 18 17 16 14 16 12 9 7 6 4 3 3 3 3 3 3 2 3 1 3 5 7 6 5 6 6 6 7 8 10 12 14
Wind_Direction
29 68 55 39 42 66 48 310 320 345 105 332 18 104 83 30 26 19 16 6 357 359 356 358 356 354 351 350 348 347 341 342 340 337 335 328 319 311 304 272 254 237 224 208
100 65 41 51 23 355 76 335 18 292 314 326 334 299 187 139 45 29 15 9 2 349 351 357 356 355 355 352 348 345 343 340 340 335 328 316 308 298 295 286 290 248 230 212
78 69 347 24 27 20 54 19 348 312 314 295 304 204 217 206 291 9 16 11 4 359 348 348 353 356 352 352 350 344 342 340 339 339 326 320 313 307 306 299 300 263 243 218
66 35 30 31 45 359 17 3 323 314 317 7 347 305 224 247 313 358 3 5 0 354 351 346 348 352 354 351 346 346 342 341 342 342 337 331 319 314 312 303 298 288 272 228
93 66 33 36 349 339 330 331 305 297 253 292 79 267 147 231 268 351 356 356 355 354 349 346 346 346 348 351 348 347 345 343 344 347 344 333 323 313 311 304 300 287 285 228
92 95 313 352 308 275 316 319 156 180 217 239 128 357 231 214 224 335 347 353 355 353 351 350 346 347 348 350 351 351 348 346 346 346 345 340 330 324 318 315 308 297 287 249
101 105 48 345 295 256 350 219 200 236 245 314 152 288 281 180 173 336 336 338 347 351 350 350 351 349 349 351 351 351 350 348 347 347 346 344 337 328 322 318 314 309 294 268
210 214 183 14 29 351 11 355 19 293 292 316 265 231 314 178 181 277 300 308 338 352 351 350 350 349 348 349 351 350 351 351 349 347 348 344 340 333 323 321 316 308 304 308
197 165 147 126 95 291 53 58 35 95 67 276 257 262 255 197 221 240 299 342 337 340 345 344 346 349 350 350 352 351 352 352 352 348 349 349 343 340 333 327 325 324 322 322
143 203 182 129 175 87 354 140 175 96 294 278 245 279 265 213 228 246 296 308 320 325 334 336 340 342 346 347 348 352 355 352 356 349 351 348 347 342 339 334 333 334 332 331
142 271 128 250 198 179 156 173 115 29 257 280 300 258 220 230 204 224 277 286 298 305 314 318 322 328 331 336 344 347 354 351 355 353 351 350 349 349 345 346 338 339 339 340
144 95 241 158 109 327 318 204 196 224 186 240 284 269 248 226 219 226 264 299 296 292 295 293 298 308 319 329 336 339 342 347 348 346 349 351 348 350 352 351 346 345 346 349
173 184 292 181 144 63 226 198 206 130 149 218 215 256 166 214 231 238 264 306 295 298 293 292 286 296 304 315 326 333 336 339 341 343 344 349 352 350 350 351 349 349 352 352
162 191 241 256 50 92 200 202 207 198 218 227 230 273 278 263 265 276 292 292 295 288 287 285 282 284 288 300 312 325 328 337 338 339 343 346 346 347 345 347 352 354 354 358
193 247 214 266 271 256 253 245 216 217 220 232 267 264 271 286 296 293 296 288 285 277 279 276 279 283 282 284 296 313 324 332 338 339 341 344 341 341 344 345 348 353 0 357
165 254 106 270 273 263 261 256 238 238 243 251 259 271 268 282 283 275 283 283 276 273 275 277 275 271 269 271 274 290 312 326 331 334 338 340 342 342 346 344 345 347 350 356
167 201 261 265 4 304 261 240 220 215 220 227 245 249 276 274 275 279 291 287 280 273 273 279 279 265 257 262 270 282 303 313 324 329 336 340 342 340 343 344 344 349 345 343
149 150 214 286 318 249 17 238 197 207 235 223 249 259 256 260 283 297 281 271 275 267 269 274 274 265 249 238 239 265 281 294 316 323 332 337 339 337 337 339 343 342 344 339
185 168 209 266 241 312 272 141 160 182 264 243 238 253 261 271 284 276 268 258 257 266 260 279 282 266 244 229 221 232 262 278 301 314 323 333 334 331 333 333 338 335 338 335
206 201 208 148 248 256 62 136 145 168 278 265 213 245 255 188 257 295 332 289 270 250 259 282 287 256 232 222 212 226 242 263 282 310 319 324 324 323 323 325 328 328 329 324
170 203 217 217 259 279 255 189 158 220 313 182 205 228 220 230 257 303 297 284 269 261 280 288 278 251 244 216 199 223 237 249 282 298 310 317 320 317 313 316 323 321 325 324
172 174 192 206 236 269 193 129 207 246 161 218 216 244 245 252 267 297 293 283 277 280 283 283 280 257 227 194 192 219 232 271 220 306 311 315 314 312 312 315 312 320 320 321
231 204 184 198 209 252 196 229 230 256 274 264 266 266 273 276 274 279 277 283 279 281 288 286 273 265 147 159 185 208 227 196 306 310 304 302 305 305 308 309 311 313 319 318
240 174 239 312 207 241 240 246 255 258 260 271 272 270 270 267 270 274 271 274 274 269 270 277 266 215 174 177 169 160 167 128 307 295 300 303 301 308 305 307 308 310 310 317
180 151 219 255 266 275 259 249 263 270 268 266 261 261 259 261 265 258 269 273 275 283 272 263 211 168 161 164 160 162 164 294 290 289 290 295 298 304 307 303 305 300 303 298
196 221 224 250 257 255 276 280 256 273 278 282 280 273 264 252 262 258 259 263 262 248 168 144 120 123 140 157 207 232 256 289 286 290 290 301 301 305 306 308 309 302 296 303